Simultaneous Nadir Overpasses (SNOs) Predictions

Prediction of SNOs between AQUA and METOP-A Satellite Orbit:

Table of predicted SNOs for the next 14.0 days since TLE Epoch: 11/16/2012
Index Date (AQUA) Time (AQUA) AQUA Lat,Lon Date (METOP-A) Time (METOP-A) METOP-A Lat,Lon Distance(km) Time Diff (sec)
1 11/17/2012 06:38:57 -73.82,-105.60 11/17/2012 06:38:24 -73.83,-105.53 2.06 33
2 11/17/2012 07:28:26 73.89, 61.89 11/17/2012 07:29:02 73.90, 61.98 2.99 36
3 11/20/2012 02:13:16 -73.82, -39.17 11/20/2012 02:12:41 -73.79, -39.19 2.74 35
4 11/20/2012 03:02:45 73.89, 128.31 11/20/2012 03:03:19 73.87, 128.31 2.55 34
5 11/22/2012 21:47:36 -73.78, 27.33 11/22/2012 21:46:57 -73.79, 27.22 3.49 39
6 11/22/2012 22:37:05 73.85,-165.20 11/22/2012 22:37:35 73.86,-165.28 2.47 30
7 11/25/2012 17:21:58 -73.81, 93.67 11/25/2012 17:21:11 -73.81, 93.71 1.43 47
8 11/25/2012 18:11:27 73.89, -98.87 11/25/2012 18:11:49 73.88, -98.79 2.99 22
9 11/28/2012 12:56:19 -73.82, 160.07 11/28/2012 12:55:23 -73.81, 160.14 2.69 56
10 11/28/2012 13:45:47 73.85, -32.36 11/28/2012 13:46:01 73.87, -32.36 2.65 14




NCC Satellite Simultaneous Nadir Overpasses (SNOs) Prediction Service
